Date String (YYYY-MM-DD hh:mm:ss) UTC,Instrument flags,Ambient pressure (hPa),Sample flow (lpm),Bypass flow (lpm),Sample temperature (°C),Ambient temperature (°C),ASC tube jacket temperature (°C),LED temperature (°C),Box temperature (°C),Sample RH (%),Span deviation,Mass concentration (μg/m³),Mass concentration (μg/m³),Mass concentration (μg/m³)
DateTimeUTC,F1_M11,P_M11,Q1_M11,Q2_M11,T1_M11,T2_M11,T3_M11,T4_M11,T5_M11,U1_M11,ZSPAN_M11,X2_M11,X0_M11,X1_M11
2022-02-15 09:00:00,,0818.3,4.99,0.00,23.2,22.4,00.0,32.2,25.0,05.9,0000.0,0002.26,0005.47,0001.78
2022-02-15 09:01:00,,0818.3,5.01,0.00,23.2,22.4,00.0,32.2,24.9,06.4,0000.0,0002.32,0005.79,0001.83
2022-02-15 09:02:00,,0818.3,5.00,0.00,23.1,22.3,00.0,32.2,24.9,07.0,0000.0,0002.47,0007.01,0001.94
2022-02-15 09:03:00,,0818.2,5.00,0.00,23.1,22.3,00.0,32.2,24.9,07.1,0000.0,0002.66,0007.53,0002.07
2022-02-15 09:04:00,,0818.2,5.00,0.00,23.1,22.3,00.0,32.2,24.9,07.0,0000.0,0002.84,0008.01,0002.17
2022-02-15 09:05:00,,0818.2,4.99,0.00,23.1,22.3,00.0,32.2,24.8,06.9,0000.0,0003.03,0009.44,0002.27
2022-02-15 09:06:00,,0818.2,5.02,0.00,23.1,22.2,00.0,32.1,24.8,07.0,0000.0,0003.15,0010.15,0002.37
2022-02-15 09:07:00,,0818.3,5.01,0.00,23.0,22.2,00.0,32.1,24.8,06.8,0000.0,0003.24,0010.69,0002.46
2022-02-15 09:08:00,,0818.3,5.00,0.00,23.0,22.2,00.0,32.1,24.8,06.3,0000.0,0003.27,0010.72,0002.50
2022-02-15 09:09:00,,0818.3,4.99,0.00,23.0,22.3,00.0,32.1,24.8,06.5,0000.0,0003.32,0011.92,0002.56
2022-02-15 09:10:00,,0818.2,5.00,0.00,23.0,22.3,00.0,32.1,24.8,06.3,0000.0,0003.42,0011.48,0002.64
2022-02-15 09:11:00,,0818.1,5.00,0.00,23.0,22.3,00.0,32.1,24.8,05.9,0000.0,0003.47,0011.58,0002.68
2022-02-15 09:12:00,,0818.0,5.01,0.00,23.1,22.3,00.0,32.1,24.9,05.7,0000.0,0003.46,0011.53,0002.65
2022-02-15 09:13:00,,0818.0,4.99,0.00,23.1,22.3,00.0,32.1,24.9,05.5,0000.0,0003.40,0010.87,0002.53
2022-02-15 09:14:00,,0818.0,5.00,0.00,23.1,22.3,00.0,32.1,24.9,05.6,0000.0,0003.31,0010.69,0002.38
2022-02-15 09:15:00,,0818.0,5.00,0.00,23.1,22.4,00.0,32.1,24.9,05.5,0000.0,0003.22,0010.28,0002.23
2022-02-15 09:16:00,,0818.0,4.98,0.00,23.1,22.4,00.0,32.1,24.9,05.4,0000.0,0003.11,0009.03,0002.11
2022-02-15 09:17:00,,0818.0,5.03,0.00,23.1,22.4,00.0,32.1,24.9,05.4,0000.0,0002.93,0008.24,0001.96
2022-02-15 09:18:00,,0818.0,4.98,0.00,23.1,22.4,00.0,32.1,24.9,05.5,0000.0,0002.74,0007.59,0001.84
2022-02-15 09:19:00,,0818.0,5.00,0.00,23.1,22.4,00.0,32.1,24.9,05.1,0000.0,0002.58,0007.45,0001.74
2022-02-15 09:20:00,,0818.0,5.00,0.00,23.1,22.4,00.0,32.1,24.9,04.7,0000.0,0002.44,0005.22,0001.66
2022-02-15 09:21:00,,0818.0,5.00,0.00,23.1,22.3,00.0,32.1,24.9,05.3,0000.0,0002.20,0003.63,0001.55
2022-02-15 09:22:00,,0818.0,5.00,0.00,23.0,22.3,00.0,32.1,24.8,05.4,0000.0,0002.07,0003.40,0001.48
2022-02-15 09:23:00,,0818.0,5.01,0.00,23.0,22.2,00.0,32.1,24.7,05.5,0000.0,0001.95,0003.01,0001.44
2022-02-15 09:24:00,,0818.0,4.99,0.00,23.0,22.2,00.0,32.1,24.7,05.4,0000.0,0001.85,0002.83,0001.41
2022-02-15 09:25:00,,0818.0,5.02,0.00,23.0,22.2,00.0,32.0,24.7,05.6,0000.0,0001.83,0002.81,0001.39
2022-02-15 09:26:00,,0817.9,4.99,0.00,23.0,22.2,00.0,32.0,24.7,05.2,0000.0,0001.75,0002.58,0001.37
2022-02-15 09:27:00,,0817.8,5.02,0.00,23.0,22.2,00.0,32.0,24.8,05.3,0000.0,0001.72,0002.51,0001.36
2022-02-15 09:28:00,,0817.9,4.99,0.00,23.0,22.2,00.0,32.0,24.8,05.2,0000.0,0001.72,0002.53,0001.35
2022-02-15 09:29:00,,0817.9,4.99,0.00,23.0,22.2,00.0,32.0,24.8,04.8,0000.0,0001.68,0002.54,0001.32
2022-02-15 09:30:00,,0817.8,5.00,0.00,23.0,22.3,00.0,32.0,24.7,04.6,0000.0,0001.68,0002.68,0001.31
2022-02-15 09:31:00,,0817.9,4.99,0.00,23.0,22.3,00.0,32.0,24.8,04.6,0000.0,0001.66,0002.62,0001.31
2022-02-15 09:32:00,,0817.9,5.02,0.00,23.0,22.3,00.0,32.0,24.8,04.4,0000.0,0001.65,0002.61,0001.29
2022-02-15 09:33:00,,0817.9,4.99,0.00,23.0,22.3,00.0,32.0,24.8,04.4,0000.0,0001.64,0002.57,0001.28
2022-02-15 09:34:00,,0817.9,4.99,0.00,23.0,22.3,00.0,32.0,24.7,04.3,0000.0,0001.63,0002.60,0001.27
2022-02-15 09:35:00,,0817.9,5.02,0.00,23.0,22.3,00.0,32.0,24.8,04.3,0000.0,0001.63,0002.57,0001.27
2022-02-15 09:36:00,,0817.9,4.99,0.00,23.0,22.3,00.0,32.0,24.8,04.3,0000.0,0001.60,0002.62,0001.27
2022-02-15 09:37:00,,0817.8,5.01,0.00,23.0,22.3,00.0,32.0,24.8,04.2,0000.0,0001.61,0003.33,0001.26
2022-02-15 09:38:00,,0817.8,5.00,0.00,23.0,22.3,00.0,32.0,24.8,04.4,0000.0,0001.59,0003.27,0001.27
2022-02-15 09:39:00,,0817.9,5.00,0.00,23.0,22.3,00.0,32.0,24.8,04.8,0000.0,0001.58,0003.23,0001.28
2022-02-15 09:40:00,,0817.8,5.01,0.00,23.0,22.3,00.0,32.0,24.8,04.9,0000.0,0001.66,0003.37,0001.27
2022-02-15 09:41:00,,0817.8,5.00,0.00,23.0,22.3,00.0,32.0,24.8,05.3,0000.0,0001.68,0003.41,0001.27
2022-02-15 09:42:00,,0817.8,5.00,0.00,23.0,22.3,00.0,32.0,24.8,05.3,0000.0,0001.69,0003.45,0001.28
2022-02-15 09:43:00,,0817.7,5.01,0.00,23.0,22.2,00.0,32.0,24.7,05.7,0000.0,0001.71,0003.50,0001.29
2022-02-15 09:44:00,,0817.7,4.98,0.00,22.9,22.2,00.0,32.0,24.7,05.3,0000.0,0001.69,0003.47,0001.29
2022-02-15 09:45:00,,0817.7,5.01,0.00,22.9,22.2,00.0,32.0,24.7,05.4,0000.0,0001.69,0003.50,0001.29
2022-02-15 09:46:00,,0817.7,5.00,0.00,22.9,22.2,00.0,32.0,24.6,05.4,0000.0,0001.70,0003.49,0001.29
2022-02-15 09:47:00,,0817.7,4.99,0.00,22.9,22.2,00.0,32.0,24.7,05.4,0000.0,0001.66,0003.17,0001.27
2022-02-15 09:48:00,,0817.7,5.02,0.00,22.9,22.2,00.0,32.0,24.7,05.5,0000.0,0001.65,0002.47,0001.29
2022-02-15 09:49:00,,0817.7,5.00,0.00,22.9,22.2,00.0,32.0,24.7,05.5,0000.0,0001.64,0002.46,0001.28
2022-02-15 09:50:00,,0817.7,4.99,0.00,22.9,22.2,00.0,32.0,24.7,05.2,0000.0,0001.65,0002.48,0001.28
2022-02-15 09:51:00,,0817.6,5.01,0.00,22.9,22.2,00.0,31.9,24.7,05.1,0000.0,0001.58,0002.27,0001.28
2022-02-15 09:52:00,,0817.6,5.01,0.00,22.9,22.2,00.0,31.9,24.7,04.9,0000.0,0001.55,0002.77,0001.28
2022-02-15 09:53:00,,0817.6,5.02,0.00,22.9,22.2,00.0,31.9,24.7,04.9,0000.0,0001.58,0003.36,0001.27
2022-02-15 09:54:00,,0817.6,4.99,0.00,22.9,22.2,00.0,31.9,24.7,04.9,0000.0,0001.60,0003.41,0001.27
2022-02-15 09:55:00,,0817.6,5.01,0.00,22.9,22.2,00.0,31.9,24.6,05.1,0000.0,0001.62,0003.47,0001.28
2022-02-15 09:56:00,,0817.6,4.99,0.00,22.9,22.2,00.0,31.9,24.7,05.1,0000.0,0001.64,0003.48,0001.29
2022-02-15 09:57:00,,0817.6,5.00,0.00,22.9,22.2,00.0,31.9,24.7,04.8,0000.0,0001.63,0003.47,0001.29
2022-02-15 09:58:00,,0817.6,5.01,0.00,22.9,22.2,00.0,31.9,24.7,04.8,0000.0,0001.67,0003.55,0001.30
2022-02-15 09:59:00,,0817.7,4.99,0.00,22.9,22.2,00.0,31.9,24.7,04.5,0000.0,0001.69,0003.93,0001.29
